GW5888 Weather Reports


time (UTC)temp
C
wind
direction
speed
KPH
gust
KPH
rain 1hr
cm
rain 24hr
cm
rain mn
cm
humidity
%
barometer
mb
20260503005517 21 10 6.4 9.7 0.00 0.00 0.00 30 1011.8
20260503004518 21 10 8.0 12.9 0.00 0.00 0.00 31 1011.9
20260503003519 21 13 6.4 12.9 0.00 0.00 0.00 30 1011.9
20260503002518 21 17 6.4 14.5 0.00 0.00 0.00 30 1011.9
20260503001518 21 21 6.4 12.9 0.00 0.00 0.00 29 1011.9
20260503000518 22 4 8.0 12.9 0.00 0.00 0.00 30 1012.0
20260502235519 22 6 6.4 12.9 0.00 0.00 0.00 32 1012.0
20260502234519 21 34 4.8 11.3 0.00 0.00 0.00 30 1012.0
20260502233536 21 20 6.4 12.9 0.00 0.00 0.00 31 1012.1
20260502232516 21 19 8.0 12.9 0.00 0.00 0.00 30 1012.2
20260502231539 22 7 8.0 14.5 0.00 0.00 0.00 30 1012.4
20260502230519 21 2 9.7 14.5 0.00 0.00 0.00 29 1012.4
20260502225520 21 18 6.4 14.5 0.00 0.00 0.00 30 1012.5
20260502224517 21 19 8.0 16.1 0.00 0.00 0.00 29 1012.6
20260502223520 21 16 11.3 16.1 0.00 0.00 0.00 30 1012.7
20260502222520 21 19 11.3 16.1 0.00 0.00 0.00 29 1012.8
20260502221520 21 6 11.3 17.7 0.00 0.00 0.00 31 1012.9
20260502220517 21 8 12.9 19.3 0.00 0.00 0.00 29 1012.9
20260502215518 21 20 12.9 19.3 0.00 0.00 0.00 29 1013.0
20260502214518 21 15 9.7 16.1 0.00 0.00 0.00 29 1013.1
20260502213521 21 16 9.7 20.9 0.00 0.00 0.00 29 1013.2
20260502212538 21 7 14.5 22.5 0.00 0.00 0.00 29 1013.2
20260502211518 21 5 11.3 19.3 0.00 0.00 0.00 30 1013.3
20260502210519 21 3 11.3 24.1 0.00 0.00 0.00 30 1013.4
20260502205518 21 9 11.3 17.7 0.00 0.00 0.00 32 1013.5
20260502204519 21 10 9.7 19.3 0.00 0.00 0.00 33 1013.6
20260502203539 21 8 8.0 16.1 0.00 0.00 0.00 33 1013.7
20260502202539 21 11 8.0 16.1 0.00 0.00 0.00 34 1013.8
20260502201520 21 11 8.0 17.7 0.00 0.00 0.00 33 1013.9
20260502200519 21 7 8.0 14.5 0.00 0.00 0.00 34 1013.8
20260502195516 21 9 8.0 14.5 0.00 0.00 0.00 34 1013.9
20260502194517 20 9 9.7 17.7 0.00 0.00 0.00 32 1014.0
20260502193517 20 358 11.3 19.3 0.00 0.00 0.00 31 1014.0
20260502192518 20 4 9.7 16.1 0.00 0.00 0.00 33 1014.2
20260502191520 20 359 8.0 14.5 0.00 0.00 0.00 38 1014.4
20260502190521 19 26 4.8 12.9 0.00 0.00 0.00 36 1014.6
20260502185518 19 17 4.8 9.7 0.00 0.00 0.00 41 1014.8
20260502184518 18 41 4.8 9.7 0.00 0.00 0.00 44 1014.9
20260502183518 18 1 3.2 9.7 0.00 0.00 0.00 42 1015.0
20260502182518 18 4 3.2 6.4 0.00 0.00 0.00 41 1015.1
20260502181518 17 84 3.2 8.0 0.00 0.00 0.00 41 1015.2
20260502180518 17 311 3.2 8.0 0.00 0.00 0.00 40 1015.3
20260502170520 15 185 6.4 12.9 0.00 0.00 0.00 46 1015.8
20260502163520 13 194 8.0 14.5 0.00 0.00 0.00 49 1016.2
20260502162520 12 195 6.4 11.3 0.00 0.00 0.00 50 1016.3
20260502161538 12 173 8.0 16.1 0.00 0.00 0.00 53 1016.4
20260502160518 11 158 9.7 14.5 0.00 0.00 0.00 54 1016.5
20260502151519 8 177 12.9 17.7 0.00 0.00 0.00 63 1017.0
20260502150518 8 166 9.7 16.1 0.00 0.00 0.00 64 1017.0
20260502130521 3 149 8.0 11.3 0.00 0.00 0.00 84 1017.1
20260502123519 3 143 6.4 9.7 0.00 0.00 0.00 86 1017.1
20260502122539 3 143 3.2 8.0 0.00 0.00 0.00 85 1017.1
20260502121519 3 136 4.8 9.7 0.00 0.00 0.00 83 1017.1
20260502120519 3 234 1.6 4.8 0.00 0.00 0.00 85 1017.1
20260502115519 3 184 3.2 6.4 0.00 0.00 0.00 84 1017.0
20260502114516 3 143 3.2 8.0 0.00 0.00 0.00 84 1016.9
20260502113516 3 142 1.6 6.4 0.00 0.00 0.00 83 1016.9
20260502112517 3 140 3.2 6.4 0.00 0.00 0.00 83 1016.9
20260502111520 4 159 3.2 8.0 0.00 0.00 0.00 82 1016.8
20260502110520 4 136 6.4 12.9 0.00 0.00 0.00 82 1016.8
20260502105517 4 179 4.8 8.0 0.00 0.00 0.00 81 1016.7
20260502104517 4 142 4.8 11.3 0.00 0.00 0.00 80 1016.6
20260502103520 5 199 4.8 8.0 0.00 0.00 0.00 79 1016.6
20260502102520 5 136 6.4 11.3 0.00 0.00 0.00 78 1016.5
20260502101518 4 296 3.2 6.4 0.00 0.00 0.00 79 1016.4
20260502100518 5 311 1.6 4.8 0.00 0.00 0.00 77 1016.4
20260502090519 5 101 1.6 6.4 0.00 0.00 0.00 75 1016.1
20260502071521 6 327 1.6 3.2 0.00 0.00 0.00 78 1015.9
20260502070518 6 233 1.6 6.4 0.00 0.00 0.00 77 1015.8
20260502065518 6 338 1.6 4.8 0.00 0.00 0.00 77 1015.8
20260502064518 5 20 1.6 4.8 0.00 0.00 0.00 80 1015.7
20260502063519 5 360 1.6 3.2 0.00 0.00 0.00 85 1015.6
20260502062518 5 262 1.6 4.8 0.00 0.00 0.00 85 1015.6
20260502061519 6 355 1.6 3.2 0.00 0.00 0.00 85 1015.5
20260502060519 6 227 3.2 6.4 0.00 0.00 0.00 85 1015.5
20260502055519 6 224 1.6 4.8 0.00 0.00 0.00 83 1015.5
20260502054519 6 124 1.6 3.2 0.00 0.00 0.00 81 1015.5
20260502053516 6 34 1.6 3.2 0.00 0.00 0.00 80 1015.4
20260502052520 6 273 1.6 8.0 0.00 0.00 0.00 79 1015.3
20260502051519 7 70 1.6 4.8 0.00 0.00 0.00 79 1015.3
20260502050520 7 330 1.6 4.8 0.00 0.00 0.00 80 1015.2
20260502045517 7 351 1.6 3.2 0.00 0.00 0.00 80 1015.1
20260502044538 7 12 1.6 4.8 0.00 0.00 0.00 75 1015.0
20260502043520 7 216 3.2 4.8 0.00 0.00 0.00 76 1015.0
20260502042520 8 123 1.6 4.8 0.00 0.00 0.00 76 1015.0
20260502041518 8 218 3.2 6.4 0.00 0.00 0.00 71 1014.9
20260502040518 8 135 1.6 4.8 0.00 0.00 0.00 72 1014.9
20260502035518 9 279 1.6 3.2 0.00 0.00 0.00 70 1014.8
20260502034518 10 276 1.6 4.8 0.00 0.00 0.00 68 1014.7
20260502033518 10 249 1.6 6.4 0.00 0.00 0.00 65 1014.6
20260502032515 10 229 1.6 4.8 0.00 0.00 0.00 64 1014.5
20260502031518 11 215 1.6 4.8 0.00 0.00 0.00 62 1014.3
20260502030519 11 265 3.2 6.4 0.00 0.00 0.00 62 1014.2
20260502025519 12 6 0.0 3.2 0.00 0.00 0.00 52 1013.9
20260502024519 12 228 1.6 4.8 0.00 0.00 0.00 59 1013.9
20260502023519 13 5 1.6 4.8 0.00 0.00 0.00 52 1013.8
20260502022540 14 251 3.2 4.8 0.00 0.00 0.00 54 1013.8
20260502021519 15 274 1.6 3.2 0.00 0.00 0.00 57 1013.7
20260502020520 16 43 1.6 3.2 0.00 0.00 0.00 45 1013.6
20260502015517 17 325 1.6 3.2 0.00 0.00 0.00 41 1013.6
20260502014519 17 329 1.6 3.2 0.00 0.00 0.00 39 1013.5
20260502013520 19 246 3.2 4.8 0.00 0.00 0.00 38 1013.5
20260502012521 20 190 0.0 3.2 0.00 0.00 0.00 33 1013.5
20260502011518 20 241 3.2 4.8 0.00 0.00 0.00 38 1013.6
20260502010518 20 194 3.2 6.4 0.00 0.00 0.00 34 1013.6